sat.trackr.live / text

‹ back to catalog

STARLINK-34495

NORAD 64428 · 2025-129S

PAYLOAD ACTIVE UNKNOWN

§ Identity

Operator
Country
US
Launch date
2025-06-17
Launch site
AFWTR
Launch vehicle
Mass (kg)
RCS (m²)

Purposes: comms

External: N2YO · Heavens-Above · Gunter

§ Orbital elements

Epoch: 2026-05-25T05:32:25.306944Z

Period
96.11 min
Inclination
70.0004°
Eccentricity
0.0003500
Mean motion
14.98336591 rev/d
Perigee alt
569.6 km
Apogee alt
574.5 km
Semi-major
6,950.2 km
B*
2.8101e-4
RAAN
241.4198°
Arg perigee
269.9910°
Mean anomaly
90.0848°
Rev number
5,275

§ Raw data

STARLINK-344951 64428U 25129S   26145.23084846  .00003262  00000+0  28101-3 0  99932 64428  70.0004 241.4198 0003500 269.9910  90.0848 14.98336591 52757

JSON: /api/v1/satellites/64428 · /tle

For live sub-satellite position, see the globe view (requires WebGL).

§ Visibility from observer

Set your observer location to see the next 7 days of passes ≥ 10°. The values pass through the URL so the page stays shareable.

No JS? Fill the form by hand. The geolocation button needs JavaScript.